Location: Most
(50.5133°N, 13.6207°E)
Time: 09:51:03
(UTC+01:00)

Oscar 11 - Pass Details

Date: 02 December 2022
Orbit: 611 x 621 km, 97.6° (Epoch: 28 January)

Event Time Altitude Azimuth Distance (km) Brightness Sun altitude
Rises 03:48:06 0° 25° (NNE) 2,890 10.9 -36.7°
Reaches altitude 10° 03:50:48 10° 43° (NE) 1,979 10.1 -36.3°
Enters shadow 03:52:12 16° 59° (ENE) 1,621 9.8 -36.1°
